Regional Weather Roundup
Issued by NWS

Home | Current Version | Previous Version | Text Only | Print | Product List | Glossary Off
Versions: 1 2 3 4 5 6 7 8 9 10 11 12 13 14 15 16 17 18 19 20 21 22 23 24 25 26 27 28 29 30 31 32 33 34 35 36 37 38 39 40 41 42 43 44 45 46 47 48 49 50

000
ASUS43 KDTX 301201
RWRMI
MICHIGAN HOURLY REGIONAL WEATHER ROUNDUP
NATIONAL WEATHER SERVICE DETROIT/PONTIAC MI
800 AM EDT MON MAR 30 2015

NOTE: "FAIR" INDICATES FEW OR NO CLOUDS BELOW 12,000 FEET WITH NO
SIGNIFICANT WEATHER AND/OR OBSTRUCTION TO VISIBILITY.

MIZ047>049-052>055-059>063-066>070-074>076-081>083-301300-
SOUTHEAST LOWER MICHIGAN

CITY           SKY/WX    TMP DP  RH WIND       PRES   REMARKS
ADRIAN         CLEAR     36  28  73 NW9       29.92R WCI  29
6HR MIN TEMP:  35; 6HR MAX TEMP:  42;

ALMA           FAIR      35  31  86 W8        29.86R WCI  28
ANN ARBOR      CLEAR     37  29  72 W13       29.89R WCI  29
BAD AXE        PTCLDY    36  28  75 W15       29.78R WCI  26
CARO           CLEAR     35  30  81 SW8       29.81R WCI  29
DETROIT CITY   MOCLDY    41  28  60 W13       29.87R
6HR MIN TEMP:  41; 6HR MAX TEMP:  44;

DETROIT        PTCLDY    39  30  70 W12       29.89R WCI  32
6HR MIN TEMP:  38; 6HR MAX TEMP:  44;

FLINT          CLEAR     37  29  72 W10       29.86R WCI  30
6HR MIN TEMP:  37; 6HR MAX TEMP:  41;

GROSSE ILE     PTCLDY    39  30  70 W12       29.87R WCI  32
HILLSDALE      CLEAR     35  30  82 W13       29.91R WCI  26
HOWELL         CLEAR     35  31  85 W8        29.87R WCI  28
6HR MIN TEMP:  34; 6HR MAX TEMP:  40;


CITY           SKY/WX    TMP DP  RH WIND       PRES   REMARKS
JACKSON        CLEAR     35  28  75 W8        29.90R WCI  29
6HR MIN TEMP:  34; 6HR MAX TEMP:  40;

LAMBERTVILLE   CLEAR     37  30  75 W10       29.91R WCI  30
LANSING        FAIR      35  28  75 W10       29.90R WCI  27
6HR MIN TEMP:  34; 6HR MAX TEMP:  39;

LAPEER         FAIR      36  30  77 W10G20    29.83R WCI  29
MASON          FAIR      34  28  80 W8        29.89R WCI  27
PONTIAC        PTCLDY    36  29  75 W20       29.84R WCI  25
6HR MIN TEMP:  36; 6HR MAX TEMP:  39;

PORT HOPE        N/A     37  28  70 W13       29.74R WCI  29
6HR MIN TEMP:  36; 6HR MAX TEMP:  38;

PORT HURON     CLEAR     37  28  70 W7        29.82R WCI  32
TRI CITIES     CLEAR     35  29  78 W10       29.83R WCI  27
6HR MIN TEMP:  34; 6HR MAX TEMP:  40;

TROY           PTCLDY    39  29  65 W5G18     29.87R
SAGINAW HB     CLEAR     36  32  87 SW8       29.83R WCI  29
$$
MIZ043>046-050>051-056>058-064>065-071>073-077>080-301300-
SOUTHWEST LOWER MICHIGAN

CITY           SKY/WX    TMP DP  RH WIND       PRES   REMARKS
BATTLE CREEK   CLEAR     35  28  75 W9        29.93R WCI  28
6HR MIN TEMP:  34; 6HR MAX TEMP:  41;

BENTON HARBOR  PTCLDY    34  30  85 W13       29.98R WCI  25
6HR MIN TEMP:  34; 6HR MAX TEMP:  39;

BIG RAPIDS     CLEAR     34  29  82 W12G17    29.84R WCI  26
6HR MIN TEMP:  34; 6HR MAX TEMP:  38;

COLDWATER      CLEAR     32  28  83 W6        29.94R WCI  27
6HR MIN TEMP:  32; 6HR MAX TEMP:  41;

FREMONT        FAIR      35  29  79 W6        29.88R WCI  30
HOLLAND        CLEAR     38  30  73 W9        29.94R WCI  31
6HR MIN TEMP:  37; 6HR MAX TEMP:  41;

GRAND RAPIDS   PTCLDY    34  28  79 W10       29.91R WCI  26
6HR MIN TEMP:  34; 6HR MAX TEMP:  40;

IONIA          FAIR      36  29  75 W10       29.88R WCI  29
KALAMAZOO      CLEAR     37  28  70 W9        29.95R WCI  30
6HR MIN TEMP:  36; 6HR MAX TEMP:  42;

LUDINGTON      MOCLDY    38  32  79 W9        29.87S WCI  31
6HR MIN TEMP:  36; 6HR MAX TEMP:  38;

MARSHALL       CLEAR     32  28  83 W7        29.92R WCI  26
MOUNT PLEASANT CLEAR     35  29  79 W8        29.83R WCI  29
MUSKEGON       PTCLDY    39  30  70 W14G22    29.92R WCI  31
6HR MIN TEMP:  37; 6HR MAX TEMP:  40;

SOUTH HAVEN    CLEAR     37  32  79 W10G17    29.97R WCI  30
$$
MIZ016>042-301300-
NORTHERN LOWER MICHIGAN

CITY           SKY/WX    TMP DP  RH WIND       PRES   REMARKS
ALPENA         MOCLDY    35  29  78 W7        29.71R WCI  29
6HR MIN TEMP:  35; 6HR MAX TEMP:  36; 6HR PCP: TRACE;

BEAVER ISLAND  FLURRIES  33  31  89 W10       29.76R WCI  25
6HR MIN TEMP:  32; 6HR MAX TEMP:  35;

BELLAIRE       CLOUDY    36  30  79 SW3       29.77S
6HR MIN TEMP:  35; 6HR MAX TEMP:  37;

CADILLAC       MOCLDY    33  29  86 W8        29.78S WCI  26
CHARLEVOIX     CLOUDY    35  32  90 W13       29.79R WCI  26
FRANKFORT      PTCLDY    38  29  69 NW10G16   29.82R WCI  31
GAYLORD        LGT SNOW  32  30  92 W9        29.73R FOG     WCI  24
6HR MIN TEMP:  32; 6HR MAX TEMP:  33; 6HR PCP:  0.01;

GRAYLING       LGT SNOW  33  30  87 W8        29.77R WCI  26
6HR MIN TEMP:  32; 6HR MAX TEMP:  35;

HARBOR SPRINGS CLOUDY    33  31  89 W8        29.74R WCI  27
HOUGHTON LAKE  PTCLDY    33  28  81 W12       29.76R WCI  24
6HR MIN TEMP:  32; 6HR MAX TEMP:  35; 6HR PCP: TRACE;

MANISTEE       CLOUDY    37  28  70 W16       29.84R WCI  28
OSCODA         PTCLDY    36  30  79 W7        29.74R WCI  30
PELLSTON       LGT SNOW  34  30  85 W12G20    29.73R FOG     WCI  25
6HR MIN TEMP:  34; 6HR MAX TEMP:  36; 6HR PCP: TRACE;

ROGERS CITY    CLOUDY    35  32  90 W8G18     29.71R WCI  28
TRAVERSE CITY  MOCLDY    37  29  72 SW7       29.77S WCI  32
6HR MIN TEMP:  36; 6HR MAX TEMP:  38; 6HR PCP: TRACE;

$$
MIZ007>008-015-301300-
EASTERN UPPER MICHIGAN

CITY           SKY/WX    TMP DP  RH WIND       PRES   REMARKS
KINROSS        CLOUDY    30  27  86 W20       29.68R WCI  18
6HR MIN TEMP:  30; 6HR MAX TEMP:  34;

MACKINAC ISLAN LGT SNOW  32  32 100 NW8       29.71R WCI  25
6HR MIN TEMP:  32; 6HR MAX TEMP:  34;

NEWBERRY       CLOUDY    31  27  86 NW12G22   29.73R WCI  22
S. S. MARIE    PTCLDY    29  23  78 NW12G31   29.67R WCI  19
6HR MIN TEMP:  29; 6HR MAX TEMP:  34; 6HR PCP: TRACE;

$$
MIZ004>006-011>014-085-301300-
CENTRAL UPPER MICHIGAN

CITY           SKY/WX    TMP DP  RH WIND       PRES   REMARKS
MANISTIQUE     LGT SNOW  32  31  96 NW12G23   29.77R WCI  23
ESCANABA       CLEAR     30  27  86 W7        29.78R WCI  23
6HR MIN TEMP:  30; 6HR MAX TEMP:  36;

MENOMINEE      CLEAR     36  27  69 W7        29.83R WCI  30
6HR MIN TEMP:  36; 6HR MAX TEMP:  37;

SAWYER-GWINN   MOCLDY    32  27  80 NW8       29.78R WCI  25
$$
MIZ001>003-009>011-084-301300-
WESTERN UPPER MICHIGAN

CITY           SKY/WX    TMP DP  RH WIND       PRES   REMARKS
IRON MOUNTAIN  CLEAR     36  25  64 W12       29.79R WCI  28
6HR MIN TEMP:  35; 6HR MAX TEMP:  37;

HOUGHTON       CLEAR     31  25  78 NW14      29.79R WCI  21
6HR MIN TEMP:  30; 6HR MAX TEMP:  36; 6HR PCP:  0.01;

COPPER HARBOR    N/A     31  26  82 N10       29.79R WCI  22
6HR MIN TEMP:  29; 6HR MAX TEMP:  37;

IRONWOOD       CLEAR     30  25  80 W9        29.86R WCI  22
6HR MIN TEMP:  30; 6HR MAX TEMP:  36;

$$

ABBREVIATIONS USED IN REMARKS
   TC - TEMPERATURE IN CELSIUS
  WCI - WIND CHILL INDEX
   HX - HEAT INDEX
  VSB - VISIBILITY




USA.gov is the U.S. government's official web portal to all federal, state and local government web resources and services.